Voltar ao catálogo

STARLINK-34339

AtivoComunicaçõesSSO
NORAD 64160·PAYLOAD·🇺🇸 United States

Lançado May 27, 2025 de Vandenberg Space Force Base

Loading…

Próximas Passagens (próximas 24 horas)

TLE

AtualizadoSource: CelesTrak SupGP

Época: Sep 15, 2026, 03:24 UTC

1 64160C 25112Q   26258.14215278  .00014315  00000+0  44454-3 0  2586
2 64160  97.2832 305.3188 0001470  89.7549  97.0625 15.33420406    10

Acompanhe STARLINK-34339 em tempo real com AllMySat

Download on the App Store